Lapse_Rate
6.0 8.4 9.8 8.8 6.6 6.5 6.5 6.5 6.4 6.5 6.5 7.6 7.8 7.1 6.6 7.3 6.6 6.6 9.9 10.1 10.2 10.2 9.4 6.7 5.5 6.3 6.9 6.3 6.5 6.5 6.5 6.4 6.1 6.3 6.4 6.5 6.5 6.3 6.3 6.0 6.0 5.9 6.3 7.2 6.8 6.9 6.8 6.6 7.0
8.3 7.3 9.2 7.9 6.6 6.5 6.5 6.5 6.5 6.5 7.2 7.9 7.8 7.5 7.1 6.5 8.5 8.8 9.2 9.9 10.2 10.2 9.8 9.6 5.4 5.8 5.9 6.4 6.8 6.8 6.5 6.2 6.2 6.3 6.5 6.5 6.4 6.5 6.2 6.2 6.1 6.9 6.6 7.2 6.9 7.1 7.5 7.1 6.3
7.0 7.3 7.7 6.5 6.6 6.5 6.5 6.5 6.5 7.0 7.7 7.6 7.2 8.0 7.5 7.2 8.6 9.1 9.9 10.1 10.3 10.1 9.9 8.1 6.0 5.8 5.9 6.5 6.7 6.5 6.5 6.4 6.5 6.6 6.5 6.7 6.5 6.6 6.7 6.5 6.5 6.6 6.4 7.2 7.1 7.0 7.1 6.8 6.5
9.3 8.7 8.1 6.5 6.5 6.5 6.5 6.5 6.9 6.8 7.5 7.8 7.6 6.5 8.3 9.1 9.0 9.7 10.0 10.2 10.3 10.2 9.9 5.9 6.1 6.3 6.7 6.8 6.3 6.5 6.5 6.5 6.5 6.7 6.5 6.8 6.7 6.5 6.4 6.5 6.8 6.9 6.6 6.7 6.6 6.8 6.6 6.5 6.7
9.3 8.1 6.5 6.5 6.5 6.5 6.5 7.1 7.2 6.6 7.0 7.4 7.7 6.8 7.6 9.0 9.7 10.0 10.0 10.3 10.2 10.3 9.8 8.2 5.9 6.4 6.5 6.5 6.5 6.5 6.4 6.5 6.8 6.7 6.8 6.4 6.9 7.0 6.6 6.7 6.6 6.6 6.8 6.6 6.5 6.7 6.7 6.8 6.8
7.5 7.7 6.4 6.5 6.5 6.5 6.6 7.4 7.2 7.0 7.3 7.4 7.3 7.3 7.7 9.3 9.5 9.9 10.2 10.2 10.5 10.3 10.0 9.4 5.8 6.0 6.3 6.6 6.7 7.0 7.4 6.3 6.3 6.5 6.9 6.8 6.5 6.7 6.5 6.5 6.6 7.0 6.6 6.5 6.4 6.5 6.6 6.7 6.9
6.8 6.5 6.5 6.4 6.6 6.5 6.4 7.7 6.8 7.0 7.0 7.1 8.2 6.5 8.1 9.0 9.7 10.0 10.1 10.3 10.3 10.1 10.1 9.8 9.4 7.9 6.6 6.6 6.8 7.2 7.2 6.3 6.0 6.5 6.7 6.7 6.6 6.8 6.7 6.7 6.7 6.9 6.8 6.7 6.4 6.4 6.4 6.5 6.4
7.9 6.5 6.5 6.5 6.5 6.5 6.8 7.4 7.7 7.2 6.8 8.6 8.5 6.6 7.0 9.0 9.7 10.0 10.1 10.2 10.2 10.2 10.4 10.0 9.8 9.5 9.4 8.5 7.0 6.7 7.1 6.2 6.2 6.4 6.6 6.6 6.6 6.5 6.6 6.8 6.8 7.5 7.0 6.9 6.7 6.6 6.3 6.3 6.2
8.4 6.5 6.5 6.5 6.5 6.5 7.3 6.6 7.8 8.3 7.7 8.0 8.2 8.2 8.9 9.4 9.7 9.8 9.7 9.8 9.9 10.0 10.2 10.3 10.1 9.7 9.4 8.6 7.9 6.9 6.6 6.3 6.4 6.8 6.3 6.9 9.4 8.2 7.2 6.7 6.6 6.7 6.5 6.4 6.5 6.5 6.5 6.3 6.2
7.0 6.5 6.5 6.5 6.7 6.5 7.0 7.0 7.3 7.2 7.2 7.4 7.9 8.8 9.3 9.3 9.4 9.3 9.3 9.4 9.6 9.7 10.0 10.1 10.0 10.1 9.8 9.7 8.8 9.1 9.4 9.4 9.4 9.4 9.0 9.5 9.6 9.6 9.1 7.8 5.9 6.3 6.4 6.3 6.4 6.3 6.5 6.1 8.0
7.0 6.5 6.5 6.8 7.3 7.3 6.9 7.0 7.7 7.0 6.5 7.4 7.5 8.3 9.0 9.0 9.1 9.2 9.3 9.5 9.6 9.9 9.9 10.0 10.0 9.6 9.8 9.8 9.4 9.6 9.5 9.6 9.5 9.5 9.4 9.6 9.6 9.5 9.5 9.6 9.4 9.4 7.1 9.4 8.5 8.8 8.9 9.5 9.5
6.5 6.9 7.0 7.1 7.5 7.2 6.7 7.5 7.1 7.3 7.3 8.2 8.4 8.8 8.9 8.9 9.1 9.2 9.3 9.4 9.5 9.7 9.7 10.0 10.0 9.9 9.8 9.6 9.7 9.8 10.0 9.8 9.8 9.6 9.4 9.6 9.6 9.7 9.6 9.8 9.7 9.6 9.7 9.2 9.6 9.8 9.6 9.5 8.9
6.5 6.7 7.2 7.5 7.5 7.4 7.5 7.0 6.8 7.2 8.0 8.5 8.8 8.8 8.8 8.9 9.0 9.2 9.4 9.6 9.6 9.7 9.7 9.9 10.0 9.7 9.7 8.6 9.8 9.9 10.0 9.8 9.7 9.6 9.5 9.6 9.7 9.8 8.7 8.7 9.1 9.1 9.7 9.7 9.7 9.5 9.5 8.6 8.8
7.1 7.0 7.0 7.3 7.3 7.4 6.7 6.9 7.2 7.5 8.3 8.3 8.4 8.6 8.8 8.8 9.0 9.0 9.2 9.2 9.5 9.6 9.7 10.1 9.9 9.4 9.6 9.6 9.1 9.9 9.8 9.8 9.7 9.7 9.6 7.8 9.6 9.7 9.8 9.8 9.9 9.7 9.7 9.7 9.6 9.5 8.9 9.2 8.5
7.3 6.5 6.5 6.7 7.1 6.6 7.4 6.5 6.4 7.7 8.2 8.0 8.2 8.4 8.6 8.8 9.0 8.9 9.2 9.2 9.5 9.7 9.8 9.7 9.8 10.0 9.3 8.1 7.6 9.8 9.8 9.8 9.9 9.7 8.9 7.6 8.8 8.6 8.3 9.8 10.0 9.9 9.5 8.7 9.4 8.7 8.9 8.0 9.4
6.4 6.5 6.5 6.5 6.7 7.0 7.0 6.5 6.5 7.9 8.0 7.7 8.0 8.2 8.4 8.6 8.9 9.1 9.3 9.4 9.5 9.7 9.5 9.7 9.9 10.1 9.6 9.9 8.5 9.9 9.8 9.9 9.9 9.8 9.6 7.9 7.8 7.8 8.4 10.0 9.9 9.7 9.6 9.7 9.9 9.8 9.7 9.6 9.6
6.5 6.6 6.5 6.5 6.8 6.5 6.5 6.5 6.6 8.0 7.9 7.5 7.8 8.2 8.3 8.4 8.8 9.1 9.3 9.4 9.6 9.6 9.5 9.3 9.5 9.7 9.7 9.7 9.8 9.8 9.7 9.8 9.8 9.7 9.7 9.1 7.9 7.3 7.5 9.9 9.8 9.2 9.8 9.9 9.9 9.7 9.3 9.3 9.6
6.5 6.5 6.5 6.5 6.5 6.6 6.5 6.5 6.5 7.6 7.5 7.5 7.8 8.1 8.1 8.4 8.6 9.1 9.3 9.5 9.6 9.6 9.6 9.5 9.6 9.5 9.5 9.9 9.7 10.0 9.9 10.1 9.7 9.7 9.6 9.5 9.3 8.0 6.7 9.1 9.6 8.2 8.4 9.8 9.7 8.4 9.6 9.3 9.5
6.4 6.5 6.5 6.5 6.5 6.5 6.4 6.5 6.5 7.2 7.4 7.3 7.6 7.8 8.1 8.4 8.8 9.2 9.3 9.5 9.5 9.5 9.4 9.4 9.1 9.3 9.3 9.6 9.6 9.5 9.5 9.7 9.9 9.9 9.0 8.1 7.9 8.0 7.2 9.3 9.7 8.0 8.5 9.4 8.3 9.3 9.3 9.3 9.4
6.5 6.5 6.5 6.5 6.5 6.6 6.5 6.5 6.5 6.4 6.9 7.5 7.6 7.7 8.0 8.4 8.7 8.9 9.2 9.4 9.5 9.4 9.2 9.2 9.0 8.1 7.5 9.7 9.6 9.8 9.7 9.9 9.9 10.0 9.6 8.0 7.9 7.9 8.1 8.3 9.6 9.1 9.7 8.5 8.8 8.5 8.7 9.4 9.5
6.5 6.5 6.5 6.5 6.5 6.5 6.4 6.5 6.4 6.6 7.1 7.5 7.9 8.1 8.3 8.3 8.4 8.7 8.9 9.2 9.3 9.3 9.1 9.2 8.1 8.2 7.4 9.2 9.6 9.6 9.7 9.6 9.6 9.6 9.7 9.8 8.4 8.0 7.6 7.8 8.4 9.2 8.7 9.6 8.9 8.6 8.8 9.0 9.1
6.6 6.5 6.5 6.5 6.5 6.5 6.4 6.5 6.5 6.5 6.5 6.5 7.5 7.9 8.2 8.3 8.6 8.7 9.1 9.2 9.4 9.2 9.5 9.3 7.9 7.2 7.3 7.3 9.3 9.0 9.2 9.2 9.6 9.6 9.8 10.0 9.5 9.0 8.3 7.8 7.7 7.6 9.4 9.2 9.5 9.4 8.6 8.6 8.8
6.6 6.5 6.5 6.5 6.5 6.5 6.5 6.5 6.5 6.5 6.4 6.5 6.9 7.7 8.1 8.4 8.6 8.8 9.0 9.1 9.4 9.4 9.4 9.4 8.5 7.0 7.8 6.9 7.8 9.1 8.1 9.5 9.7 9.7 9.4 9.2 9.6 8.3 9.4 8.2 8.0 7.7 8.9 9.5 8.0 8.1 8.7 8.7 8.2
6.5 6.4 6.5 6.5 6.5 6.5 6.5 6.5 6.4 6.5 6.4 6.5 6.8 7.7 8.0 8.3 8.6 8.7 9.0 9.2 9.3 9.5 9.4 9.4 8.2 6.2 6.5 6.7 6.2 7.2 8.6 8.8 9.4 9.4 9.5 9.7 9.8 9.9 8.9 9.0 7.9 7.8 8.6 7.9 8.3 8.1 7.5 7.6 8.4
6.5 6.5 6.5 6.5 6.6 6.5 6.5 6.4 6.5 6.5 6.5 6.5 6.4 7.2 8.0 8.3 8.5 8.7 8.8 9.0 9.1 9.0 9.2 9.2 8.6 6.5 6.6 6.5 6.6 6.4 6.9 7.6 8.8 8.9 9.5 9.4 9.7 9.8 9.5 8.4 8.0 9.1 7.6 7.6 7.8 7.6 7.8 8.0 8.2
6.5 6.5 6.5 6.5 6.5 6.4 6.5 6.5 6.5 6.4 6.9 7.3 7.4 7.5 8.0 8.4 8.7 8.8 8.8 8.9 8.9 9.0 9.0 9.1 9.0 7.1 7.0 6.5 6.2 6.2 6.5 8.4 9.1 9.3 9.6 9.6 9.7 9.8 9.7 9.6 8.9 8.0 8.0 7.9 7.7 8.3 9.6 8.5 7.7
6.5 6.6 6.5 6.5 6.5 6.5 6.5 6.5 6.4 6.6 6.6 6.8 7.0 7.4 7.7 8.2 8.4 8.5 8.8 9.0 8.9 9.0 8.9 8.9 9.0 8.0 7.6 7.2 6.2 6.0 6.1 6.7 9.4 9.1 9.1 9.6 9.4 9.7 9.5 9.3 9.0 8.5 7.8 7.6 8.5 9.3 9.2 8.5 8.8
6.5 6.5 6.5 6.5 6.5 6.5 6.5 6.5 6.5 6.4 6.6 6.4 6.5 7.0 7.6 8.1 8.3 8.6 8.8 8.9 9.1 9.2 9.3 9.3 9.0 8.4 7.7 9.1 7.3 6.9 6.4 5.9 7.0 7.4 7.4 9.1 9.4 8.3 8.5 8.9 7.9 8.0 7.8 8.0 8.0 9.0 9.1 7.7 8.0
6.5 6.5 6.5 6.5 6.5 6.5 6.5 6.5 6.5 6.5 6.5 6.5 6.5 7.4 7.6 7.9 8.3 8.6 8.8 8.8 9.0 9.2 9.3 9.2 9.0 9.0 8.7 9.0 9.2 8.1 7.5 6.8 6.2 7.3 6.8 6.4 7.5 7.1 6.4 6.5 7.0 7.4 7.5 8.2 7.6 7.2 7.7 7.5 8.8
6.5 6.5 6.5 6.5 6.5 6.6 6.5 6.5 6.4 6.5 6.4 6.8 7.0 7.5 7.8 7.9 8.4 8.6 8.7 8.8 8.5 8.7 9.0 8.9 8.9 9.1 8.9 7.6 8.0 8.5 7.1 6.5 7.9 6.8 7.4 7.0 6.5 7.2 6.2 6.2 6.3 6.7 7.1 7.4 7.4 7.9 9.1 9.0 8.5
Wind_Speed
10 6 4 4 5 2 7 5 8 9 8 5 11 1 2 5 5 4 13 11 18 16 19 16 10 15 12 12 10 10 10 10 9 9 9 8 8 10 11 10 9 8 7 8 8 7 9 9 9
2 3 4 3 4 6 7 5 7 5 7 12 6 5 3 5 8 12 14 15 17 17 19 17 15 16 13 11 11 11 10 10 9 9 8 9 11 10 10 10 9 8 6 7 8 8 9 10 8
2 3 3 4 2 8 9 7 8 9 11 10 4 2 1 4 7 13 18 18 17 14 16 19 16 16 14 11 11 11 11 9 9 10 9 10 10 10 11 9 9 8 8 10 8 8 9 7 8
4 4 4 1 10 8 9 7 10 9 6 2 5 6 7 3 13 9 18 17 16 13 15 16 14 15 14 12 10 11 11 9 10 10 9 11 11 11 9 10 9 8 9 8 7 7 7 7 6
3 3 2 6 9 6 5 7 6 5 5 7 5 6 10 7 9 17 17 14 15 13 15 16 12 11 10 10 11 11 11 9 11 11 9 9 11 11 10 9 8 10 8 7 6 6 6 4 4
3 4 3 5 10 4 5 7 4 5 7 6 8 14 8 8 14 16 15 14 13 13 14 17 11 10 10 10 10 10 10 10 10 8 10 9 10 10 11 11 9 8 8 7 5 4 5 4 3
5 5 7 6 8 5 5 6 4 4 5 5 10 9 9 12 15 15 13 12 12 13 11 14 14 11 10 11 10 12 9 10 10 8 8 8 8 9 8 7 6 6 5 4 5 4 4 4 4
4 4 3 3 4 9 7 9 5 1 5 9 6 5 12 15 16 14 12 12 11 11 10 10 10 11 11 14 8 9 12 9 8 6 8 8 8 7 8 7 6 5 3 3 3 5 4 4 3
3 4 6 7 1 6 8 7 5 3 9 5 3 3 18 19 17 15 13 12 11 10 11 11 10 10 8 10 11 10 9 10 8 10 8 9 9 10 13 10 5 5 3 3 3 4 5 4 4
5 3 6 4 3 3 8 6 8 6 7 7 8 12 19 20 17 16 15 14 14 13 11 9 8 10 11 9 11 10 11 12 10 9 9 6 4 4 4 7 5 5 4 5 5 5 4 7 3
1 5 3 2 5 2 5 7 7 4 4 6 12 17 20 18 17 16 14 14 14 14 10 10 9 7 10 7 11 9 9 9 9 7 6 5 6 8 8 6 9 8 10 5 10 10 6 2 4
4 3 3 1 3 4 6 6 6 7 5 4 10 19 20 19 17 15 13 12 13 13 12 12 11 9 9 9 9 7 6 7 7 9 8 7 7 6 3 3 1 3 4 2 4 2 3 5 6
7 2 4 5 7 7 6 8 4 8 3 9 14 20 19 17 16 14 13 12 11 12 13 13 12 10 9 8 7 7 7 7 7 7 8 6 2 2 4 4 2 4 2 3 4 3 6 4 7
10 8 7 4 9 8 9 6 6 10 9 13 17 19 16 16 16 13 12 12 12 11 13 13 13 11 12 8 7 6 8 8 7 8 8 7 6 4 3 3 4 3 4 2 4 4 5 4 7
9 8 5 4 8 5 8 7 11 12 14 16 17 17 16 16 14 14 13 13 12 11 12 13 12 12 11 10 9 8 8 9 7 7 7 8 8 7 5 4 4 4 3 6 6 6 5 4 6
5 6 7 6 6 5 10 4 14 14 17 17 18 17 16 17 16 15 14 13 13 12 12 12 11 13 13 11 10 9 9 8 7 7 8 9 9 7 7 5 4 3 5 5 5 5 4 6 6
6 11 13 6 8 5 13 5 8 16 17 16 17 18 16 16 16 15 15 14 14 13 13 13 13 13 13 11 9 8 8 7 7 7 8 9 10 10 10 6 4 5 5 3 4 4 4 5 6
13 14 12 10 3 9 12 14 7 14 16 16 16 17 18 17 19 17 16 15 14 13 13 13 12 13 12 9 7 7 6 6 8 8 8 9 11 11 9 9 6 5 1 5 3 4 6 5 5
11 12 12 11 7 6 12 14 11 15 16 16 17 17 18 19 18 17 17 16 15 14 14 15 14 14 11 9 9 9 8 7 7 7 8 9 11 12 9 8 4 5 3 4 4 5 4 7 5
11 12 12 9 8 8 9 11 9 16 19 18 17 17 19 20 20 19 18 17 17 16 16 16 16 15 13 10 9 8 7 7 7 6 7 10 9 11 10 7 4 4 5 4 5 4 5 5 5
13 9 13 15 18 10 9 7 5 11 15 17 18 18 19 20 20 20 19 19 18 18 18 17 17 17 15 14 9 7 6 6 6 7 7 9 10 10 10 8 6 5 5 4 2 4 4 4 1
14 11 13 16 15 11 5 6 6 6 13 18 19 19 18 20 21 20 20 19 19 17 17 18 18 18 16 16 12 13 9 9 8 8 8 8 10 10 10 9 8 6 5 4 5 5 4 4 5
13 9 12 12 15 11 8 7 9 3 7 14 20 21 21 20 21 22 20 20 17 17 16 17 18 17 16 16 15 12 12 9 7 7 7 10 8 9 10 9 8 8 7 6 6 5 5 5 5
12 14 14 12 9 11 7 7 7 3 8 6 12 20 22 21 21 21 20 18 17 16 16 16 17 16 17 17 17 16 14 13 9 9 7 9 9 8 9 10 8 7 7 6 6 5 7 7 7
10 14 10 9 9 6 6 8 7 7 12 11 6 10 23 22 21 21 21 20 18 18 17 16 18 17 17 18 17 17 17 15 14 11 10 9 9 8 8 8 7 7 8 7 6 4 5 5 4
16 13 11 10 10 9 4 7 3 11 5 10 5 3 18 23 21 22 22 20 19 19 19 18 18 17 17 17 17 15 16 12 12 13 11 10 10 9 10 8 8 8 7 7 6 6 5 3 2
16 13 18 19 17 9 13 13 13 3 9 12 12 3 14 22 21 21 21 20 19 19 21 21 20 19 19 19 16 16 15 16 13 13 13 11 10 9 9 9 9 7 6 7 6 6 5 4 3
15 8 9 12 17 17 11 12 10 8 8 10 12 9 10 19 19 19 18 19 18 20 21 21 22 21 20 19 17 15 16 16 15 14 14 13 12 12 10 10 9 8 7 7 6 6 5 5 4
9 13 13 16 12 14 13 12 5 1 5 6 10 11 1 16 20 19 19 19 19 19 19 21 21 21 19 19 18 17 16 17 16 15 15 15 14 12 11 11 10 10 9 8 8 8 7 8 6
11 15 16 12 18 14 15 16 4 5 2 5 8 11 10 7 16 20 20 19 18 18 19 20 20 20 21 19 18 18 17 16 17 17 17 15 15 14 13 11 11 10 10 10 9 9 7 8 7
Wind_Direction
219 231 257 244 228 225 80 85 114 116 138 95 130 215 58 21 357 46 130 137 138 141 137 151 152 154 146 135 138 126 123 129 133 136 138 145 145 127 126 133 127 134 142 135 133 125 114 117 119
172 249 234 277 260 100 81 108 94 109 103 141 130 129 146 88 64 122 131 144 146 141 147 141 149 149 148 148 132 135 132 131 138 135 133 135 134 128 123 132 130 128 127 128 122 119 119 118 121
221 263 267 281 32 76 92 83 98 106 136 150 120 353 49 62 116 137 122 145 141 144 146 116 150 148 159 154 142 141 135 130 137 135 129 128 128 131 128 131 119 125 139 116 126 121 120 123 128
270 206 224 289 92 90 69 90 114 126 145 166 136 105 101 66 132 128 142 143 144 144 138 130 144 154 157 160 145 140 133 129 140 133 129 136 130 128 123 126 125 128 111 119 120 121 118 124 139
270 243 175 113 96 94 91 112 139 134 135 159 198 105 109 101 115 131 141 150 142 147 136 147 145 148 148 147 151 149 138 133 131 128 137 132 128 116 117 123 136 130 130 123 125 124 126 124 127
245 273 174 105 102 107 123 144 139 110 120 121 127 126 112 122 140 142 147 149 146 149 149 135 150 154 165 156 154 143 137 138 134 143 133 127 121 126 120 124 126 135 133 124 131 140 141 146 142
304 282 60 80 90 137 144 155 159 123 131 125 137 138 122 145 142 146 150 143 148 148 145 152 156 166 157 149 158 153 148 145 142 136 127 136 125 120 117 120 129 129 130 147 156 159 155 161 185
284 272 125 71 80 89 141 170 148 162 78 121 156 158 158 143 153 151 151 149 152 155 150 141 153 157 164 158 152 160 147 154 152 150 140 124 140 130 133 146 132 134 136 152 192 185 175 174 204
280 244 93 86 147 87 157 162 159 126 143 173 127 119 135 145 155 157 157 156 159 166 158 155 149 161 143 131 142 149 164 152 160 154 142 180 168 152 175 118 143 144 130 155 144 163 178 181 196
269 25 55 29 21 53 169 187 164 186 162 149 129 117 136 152 162 165 169 168 171 167 168 151 163 155 152 165 143 179 155 164 179 173 162 176 154 126 39 131 176 181 186 193 177 173 179 203 205
49 29 1 345 343 349 154 184 178 209 198 186 176 152 155 164 171 176 180 174 173 169 164 165 166 175 160 159 165 176 165 158 156 162 186 135 177 173 200 159 193 195 184 230 189 191 237 303 281
250 195 226 284 174 178 176 167 200 204 23 166 156 165 165 173 177 179 178 173 175 171 173 176 172 177 178 164 199 163 172 172 168 165 178 162 196 155 170 183 150 204 176 194 245 246 288 254 244
243 350 235 222 196 213 170 182 185 197 124 148 148 165 172 177 175 177 171 167 176 178 181 184 178 178 173 182 184 175 178 190 172 169 179 175 177 166 153 222 206 314 204 186 253 278 281 286 278
336 301 283 230 204 191 197 196 192 176 160 149 161 172 177 179 178 174 179 174 180 178 176 178 180 179 184 185 189 190 185 183 169 183 175 196 224 195 197 211 236 242 256 267 262 279 298 318 292
304 296 199 210 191 185 209 215 218 163 171 164 173 177 179 183 184 186 186 185 184 180 170 172 183 178 185 184 188 195 192 174 179 188 186 207 222 198 271 237 255 260 286 274 254 262 268 290 299
277 222 16 116 196 161 208 314 193 170 182 178 179 178 183 187 189 189 190 190 189 181 171 180 187 182 180 182 182 192 193 184 192 191 198 209 223 239 242 245 254 274 278 272 280 290 295 328 311
34 9 16 65 185 178 213 297 164 179 189 188 186 185 188 190 193 189 195 194 187 190 178 182 189 189 178 176 181 200 185 208 203 206 213 194 222 234 246 262 259 252 271 275 284 303 304 285 314
341 352 356 7 94 225 234 253 159 189 194 193 194 192 193 196 196 194 196 194 193 186 187 186 189 191 189 177 199 199 202 211 217 219 225 216 226 232 236 258 268 274 4 291 301 332 322 315 297
309 322 344 8 12 282 253 255 239 191 203 198 195 197 195 201 198 195 197 196 195 191 190 193 193 191 192 198 197 204 208 209 217 223 219 229 234 240 227 250 235 232 258 273 295 279 276 317 358
300 312 349 344 22 291 291 284 252 190 205 204 200 199 198 199 198 198 199 198 201 194 198 195 198 193 199 200 209 217 219 220 217 212 208 228 238 237 237 242 259 198 271 237 277 302 305 303 8
296 337 345 331 331 257 292 228 185 207 203 212 211 205 202 200 198 197 201 204 202 203 199 200 200 196 199 209 202 205 224 240 210 222 227 224 232 236 231 235 244 239 252 262 245 241 287 316 321
298 2 327 326 325 330 339 325 121 180 203 211 215 211 206 196 197 198 196 203 204 205 203 202 200 199 199 200 202 210 217 221 217 224 227 235 220 236 225 220 222 232 266 287 249 229 290 279 319
296 333 313 313 306 301 170 265 117 189 202 212 216 210 210 199 194 198 202 196 204 200 200 199 198 201 203 197 214 204 223 222 221 222 231 219 222 235 227 218 220 230 236 234 255 266 252 275 267
299 289 282 256 271 275 78 312 143 62 359 346 197 212 207 202 195 197 199 200 202 199 199 194 192 199 200 200 203 212 216 224 218 215 219 223 218 216 212 223 220 230 244 231 244 240 244 241 271
247 263 269 258 239 251 66 301 292 352 349 352 320 206 203 201 196 194 198 199 201 197 197 195 191 197 198 201 205 211 216 214 218 222 217 230 215 221 208 204 213 227 219 235 238 227 252 249 247
273 287 274 264 262 274 118 266 241 353 326 28 359 263 190 194 196 195 195 196 197 197 196 199 192 198 196 203 208 210 213 215 219 213 231 218 226 220 216 205 219 213 211 218 224 249 256 288 245
265 233 250 267 269 258 265 268 263 173 8 13 22 76 178 190 192 195 195 197 197 197 197 196 197 199 200 199 203 206 209 217 215 224 211 225 230 233 226 228 228 223 221 230 228 256 270 262 255
250 302 227 224 252 262 266 249 267 292 351 14 17 48 184 189 195 191 194 194 194 197 196 197 197 200 201 204 201 206 206 209 217 216 223 223 227 223 243 227 235 233 229 239 235 257 232 244 266
187 230 233 269 260 250 252 251 299 52 358 19 26 18 196 199 193 194 193 189 193 196 194 196 199 201 201 205 204 206 207 208 213 217 218 221 224 224 223 227 233 231 236 238 238 242 243 244 248
288 284 271 241 236 231 263 258 235 101 4 40 21 31 18 305 212 203 198 198 193 195 198 198 199 203 202 204 206 208 209 210 211 217 217 218 222 220 222 223 226 232 234 234 241 246 242 250 235